Home   Weather   Columbus   Past weeks
Flag for USA

Past Weather in Columbus, Georgia, USA — Yesterday and Last 2 Weeks

Now
68 °F

Sunny.


Feels Like: 68 °F
Forecast: 92 / 60 °F
Wind: No wind

Location: Columbus Metropolitan Airport

Current Time: Sep 23, 2019 at 10:00:35 am

Latest Report: Sep 23, 2019 at 8:51 am


Visibility: 10 mi

Pressure: 30.11 "Hg

Humidity: 76%

Dew Point: 60 °F

Location of ColumbusLocation

Past Weather in Columbus — Graph

°F

Columbus Temperature Yesterday

Maximum temperature yesterday: 90 °F (at 5:51 pm)
Minimum temperature yesterday: 63 °F (at 7:51 am)
Average temperature yesterday: 77 °F

High & Low Weather Summary for the Past Weeks

 TemperatureHumidityPressure
High101 °F (Sep 17, 4:51 pm)88% (Sep 9, 4:51 am)30.29 "Hg (Sep 9, 4:51 am)
Low63 °F (Sep 22, 7:51 am)24% (Sep 17, 4:51 pm)29.88 "Hg (Sep 17, 6:51 pm)
Average82 °F57%30.09 "Hg
* Reported Sep 8 7:51 am — Sep 23 7:51 am, Columbus. Weather by CustomWeather, © 2019

Note: Actual official high and low records may vary slightly from our data, if they occured in-between our weather recording intervals... More about our weather records

Advertising

Columbus Weather History for the Previous 24 Hours

Scroll right to see more
 ConditionsComfort  
Time TempWeatherWind HumidityBarometerVisibility
7:51 am
Mon, Sep 23
63 °FSunny.No wind87%30.10 "Hg10 mi
6:51 am65 °FClear.No wind81%30.09 "Hg10 mi
5:51 am63 °FClear.5 mph87%30.08 "Hg10 mi
4:51 am66 °FClear.No wind78%30.08 "Hg10 mi
3:51 am66 °FClear.No wind78%30.07 "Hg10 mi
2:51 am68 °FClear.No wind73%30.08 "Hg10 mi
1:51 am69 °FClear.No wind68%30.09 "Hg10 mi
12:51 am70 °FClear.No wind66%30.09 "Hg10 mi
11:51 pm
Sun, Sep 22
71 °FClear.No wind63%30.11 "Hg10 mi
10:51 pm75 °FClear.No wind55%30.11 "Hg10 mi
9:51 pm76 °FClear.No wind54%30.10 "Hg10 mi
8:51 pm80 °FClear.No wind44%30.09 "Hg10 mi
7:51 pm83 °FClear.5 mph38%30.08 "Hg10 mi
6:51 pm87 °FSunny.7 mph31%30.07 "Hg10 mi
5:51 pm90 °FSunny.5 mph26%30.06 "Hg10 mi
4:51 pm89 °FSunny.5 mph27%30.08 "Hg10 mi
3:51 pm89 °FSunny.8 mph28%30.09 "Hg10 mi
2:51 pm88 °FSunny.7 mph28%30.10 "Hg10 mi
1:51 pm86 °FSunny.7 mph33%30.14 "Hg10 mi
12:51 pm84 °FSunny.7 mph38%30.17 "Hg10 mi
11:51 am83 °FSunny.8 mph41%30.20 "Hg10 mi
10:51 am78 °FSunny.No wind58%30.22 "Hg10 mi
Weather by CustomWeather, © 2019

See weather overview